Location: MAC-Johnson Site
(33.6264°N, 81.2093°W)
Time: 20:52:16
(UTC-04:00)

BlueWalker 3 - Pass Details

Date: 17 September 2024
Orbit: 472 x 485 km, 53.2° (Epoch: 10 October)

Event Time Altitude Azimuth Distance (km) Brightness Sun altitude
Rises 20:35:58 0° 304° (NW) 2,542 6.9 -14.9°
Reaches altitude 10° 20:38:19 10° 293° (WNW) 1,662 5.9 -15.4°
Maximum altitude 20:41:35 29° 233° (SW) 916 3.6 -16.1°
Drops below altitude 10° 20:44:52 10° 171° (S) 1,661 4.3 -16.7°
Enters shadow 20:44:56 10° 171° (S) 1,683 4.4 -16.7°
